{"data":{"norad_id":67499,"epoch":"2026-05-24T16:28:47.468928Z","epoch_age_seconds":106057,"freshness":"FRESH","line1":"1 67499U 26012G   26144.68666052  .00014176  00000+0  52355-3 0  9993","line2":"2 67499  43.0008 245.3098 0001786 271.0297  89.0350 15.27587102 19387","mean_motion":15.27587102,"eccentricity":0.0001786,"inclination_deg":43.0008,"raan_deg":245.3098,"arg_perigee_deg":271.0297,"mean_anomaly_deg":89.035,"bstar":0.00052355,"rev_number":1938,"period_min":94.26631045226,"perigee_km":481.80242614044,"apogee_km":484.25323421778,"semimajor_km":6861.1648301791,"source":"CELESTRAK","updated_at":"2026-05-25T13:38:21.567488Z"}}